York, PA

1:00 PM EST on December 05, 2019 (GMT -0500)
York

Weather History for KTHV - October, 2019

Change the Weather History Date:

Monday, October 14, 2019

  Actual Average Record
Temperature  
Mean Temperature 54 °F -  
Max Temperature 72 °F 0 °F 81 °F (2008)
Min Temperature 37 °F - 28 °F (2006)
Degree Days  
Heating Degree Days 11    
Growing Degree Days 4 (Base 50)    
Moisture  
Dew Point 38 °F    
Average Humidity 74    
Maximum Humidity 97    
Minimum Humidity 27    
Precipitation  
Precipitation 0.00 in - - ()
Sea Level Pressure  
Sea Level Pressure 30.00 in    
Wind  
Wind Speed 2 mph ()    
Max Wind Speed 13 mph    
Max Gust Speed 23 mph    
Visibility 7.1 miles    
Events Fog    
Averages and records for this station are not official NWS values.
T = Trace of Precipitation, MM = Missing Value Source: Averaged Metar Reports

Daily Weather History Graph

Daily Weather History Graph

Search for Another Location

Airport or City:

Astronomy

Oct. 14, 2019 Rise Set
Actual Time 7:16 AM EDT 6:29 PM EDT
Civil Twilight 6:49 AM EDT 6:56 PM EDT
Nautical Twilight 6:17 AM EDT 7:28 PM EDT
Astronomical Twilight 5:46 AM EDT 7:59 PM EDT
Moon 7:18 PM EDT (10/14) 7:46 AM EDT (10/14)
Length of Visible Light 12h 07m
Length of Day
11h 13m
Waxing Gibbous, 99% of the Moon is Illuminated
Oct 14
Waxing Gibbous
Oct 21
Last Quarter
Oct 27
New
Nov 4
First Quarter
Nov 12
Full

Hourly Weather History & Observations

Time (EDT) Temp. Windchill Dew Point Humidity Pressure Visibility Wind Dir Wind Speed Gust Speed Precip Events Conditions
12:03 AM 52.0 °F - 45.0 °F 77% 30.00 in 10.0 mi Calm Calm - N/A   Scattered Clouds
12:53 AM 46.0 °F 44.8 °F 42.1 °F 86% 30.01 in 10.0 mi WNW 3.5 mph - N/A   Clear
1:53 AM 44.1 °F - 41.0 °F 89% 30.00 in 10.0 mi Calm Calm - N/A   Clear
2:53 AM 42.1 °F - 39.0 °F 89% 29.98 in 9.0 mi Calm Calm - N/A   Clear
3:53 AM 41.0 °F - 37.9 °F 89% 29.97 in 9.0 mi Calm Calm - N/A   Clear
4:13 AM 39.0 °F 36.8 °F 36.0 °F 89% 29.96 in 9.0 mi WNW 3.5 mph - N/A   Partly Cloudy
4:53 AM 37.9 °F 35.5 °F 36.0 °F 93% 29.98 in 9.0 mi WNW 3.5 mph - N/A   Clear
5:33 AM 39.0 °F 36.8 °F 36.0 °F 89% 29.98 in 1.5 mi SE 3.5 mph - N/A   Partly Cloudy
5:35 AM 39.0 °F 36.8 °F 36.0 °F 89% 29.98 in 0.8 mi SE 3.5 mph - N/A   Mist
5:53 AM 39.0 °F - 37.0 °F 93% 29.99 in 5.0 mi Calm Calm - N/A   Scattered Clouds
6:29 AM 37.9 °F - 36.0 °F 93% 29.98 in 1.5 mi Calm Calm - N/A   Partly Cloudy
6:44 AM 39.0 °F - 37.0 °F 93% 29.99 in 6.0 mi Calm Calm - N/A   Partly Cloudy
6:53 AM 37.9 °F - 36.0 °F 93% 30.00 in 6.0 mi Calm Calm - N/A   Partly Cloudy
7:02 AM 39.9 °F - 36.0 °F 86% 29.99 in 2.0 mi Calm Calm - N/A   Scattered Clouds
7:04 AM 41.0 °F - 37.0 °F 86% 29.99 in 1.0 mi Calm Calm - N/A   Mist
7:11 AM 37.9 °F - 37.0 °F 97% 29.99 in 0.2 mi Calm Calm - N/A Fog Fog
7:53 AM 39.0 °F - 37.0 °F 93% 30.02 in 0.2 mi Calm Calm - N/A Fog Fog
8:03 AM 39.9 °F - 37.9 °F 93% 30.01 in 1.2 mi Calm Calm - N/A   Mostly Cloudy
8:06 AM 39.9 °F - 37.9 °F 93% 30.01 in 2.5 mi Calm Calm - N/A   Mostly Cloudy
8:13 AM 41.0 °F - 39.0 °F 93% 30.02 in 5.0 mi Calm Calm - N/A   Mostly Cloudy
8:21 AM 43.0 °F - 39.9 °F 89% 30.02 in 5.0 mi Calm Calm - N/A   Scattered Clouds
8:53 AM 46.9 °F - 44.1 °F 90% 30.04 in 9.0 mi Calm Calm - N/A   Clear
9:53 AM 55.0 °F - 46.9 °F 74% 30.04 in 10.0 mi Calm Calm - N/A   Clear
10:53 AM 64.0 °F - 42.1 °F 45% 30.03 in 10.0 mi WNW 5.8 mph - N/A   Clear
11:53 AM 66.0 °F - 39.9 °F 38% 30.02 in 10.0 mi Variable 6.9 mph - N/A   Clear
12:53 PM 68.0 °F - 39.9 °F 36% 30.01 in 10.0 mi WSW 9.2 mph - N/A   Clear
1:53 PM 71.1 °F - 35.1 °F 27% 29.98 in 10.0 mi West 10.4 mph 23.0 mph N/A   Clear
2:53 PM 71.1 °F - 36.0 °F 28% 29.97 in 10.0 mi West 10.4 mph 19.6 mph N/A   Clear
3:53 PM 71.1 °F - 36.0 °F 28% 29.96 in 10.0 mi West 12.7 mph 21.9 mph N/A   Clear
4:53 PM 71.1 °F - 35.1 °F 27% 29.95 in 10.0 mi West 8.1 mph - N/A   Clear
5:53 PM 69.1 °F - 37.0 °F 31% 29.96 in 10.0 mi SW 4.6 mph - N/A   Clear
6:53 PM 55.9 °F - 39.9 °F 55% 29.99 in 10.0 mi Calm Calm - N/A   Clear
7:53 PM 62.1 °F - 37.9 °F 41% 30.02 in 10.0 mi Calm Calm - N/A   Clear
8:53 PM 46.9 °F - 39.9 °F 77% 30.05 in 10.0 mi WNW 3.5 mph - N/A   Clear
9:53 PM 46.0 °F - 39.9 °F 79% 30.07 in 10.0 mi Calm Calm - N/A   Clear
10:53 PM 44.1 °F - 39.0 °F 82% 30.07 in 10.0 mi Calm Calm - N/A   Clear
11:53 PM 42.1 °F - 37.9 °F 85% 30.09 in 10.0 mi Calm Calm - N/A   Clear